Regional Weather Roundup
Issued by NWS

Home | Current Version | Previous Version | Text Only | Print | Product List | Glossary Off
Versions: 1 2 3 4 5 6 7 8 9 10 11 12 13 14 15 16 17 18 19 20 21 22 23 24 25 26 27 28 29 30 31 32 33 34 35 36 37 38 39 40 41 42 43 44 45 46 47 48 49 50

000
ASUS43 KLMK 270610
RWRKY
KENTUCKY REGIONAL WEATHER ROUNDUP
NATIONAL WEATHER SERVICE LOUISVILLE KY
200 AM EDT WED AUG 27 2014

NOTE "FAIR" INDICATES FEW OR NO CLOUDS BELOW 12,000 FEET
WITH NO SIGNIFICANT WEATHER AND/OR OBSTRUCTIONS TO VISIBILITY.

KYZ001>023-026-027-061>063-070>075-270700-
WESTERN AND SOUTH CENTRAL KENTUCKY

CITY           SKY/WX    TMP DP  RH WIND       PRES   REMARKS
PADUCAH        FAIR      76  72  87 CALM      30.07R
HENDERSON      FAIR      73  70  88 CALM      30.07
OWENSBORO      FAIR      77  75  93 CALM      30.08R
HOPKINSVILLE   FAIR      73  73 100 SW2       30.08F
BOWLING GREEN  FAIR      75  72  90 CALM      30.08F
GLASGOW        FAIR      70  70 100 CALM      30.09S
$$

KYZ024-025-028>034-038-045-046-053-270700-
NORTH CENTRAL KENTUCKY

CITY           SKY/WX    TMP DP  RH WIND       PRES   REMARKS
LOUISVILLE/SDF FAIR      77  71  82 N5        30.09R
LOUISVILLE/LOU FAIR      77  70  79 CALM      30.09R
FORT KNOX      FAIR      72  72 100 N2        30.09R
$$

KYZ035>037-039>044-047>052-055>060-089>105-270700-
NORTHEAST KENTUCKY

CITY           SKY/WX    TMP DP  RH WIND       PRES   REMARKS
LEXINGTON      FAIR      73  65  75 CALM      30.11S
COVINGTON      FAIR      73  69  87 CALM      30.10F
FRANKFORT      FAIR      71  68  90 CALM      30.10S
$$

KYZ054-064>069-076>088-106>120-270700-
SOUTHEAST KENTUCKY

CITY           SKY/WX    TMP DP  RH WIND       PRES   REMARKS
JACKSON        FAIR      67  61  81 S5        30.11F
LONDON         FAIR      66  62  87 CALM      30.12F
SOMERSET       FAIR      64  64 100 CALM      30.11F
MIDDLESBORO    FAIR      64  63  97 CALM      30.13F
MONTICELLO     FAIR      64  63  97 CALM      30.12F
$$




USA.gov is the U.S. government's official web portal to all federal, state and local government web resources and services.